Home   Weather   Klosterneuburg   Past weeks

Flag for Austria Past Weather in Klosterneuburg, Lower Austria, Austria — Yesterday and Last 2 Weeks

Now
65 °F

Overcast.


Feels Like: 65 °F
Forecast: 59 / 69 °F
Wind: 1 mph from Northeast

Location: Wien / Hohe Warte

Current Time: Jul 24, 2017 at 9:02:31 am

Latest Report: Jul 24, 2017 at 8:00 am


Visibility: 11 mi

Pressure: 29.87 "Hg

Humidity: 93%

Dew Point: 63 °F

Location of KlosterneuburgLocation

Past Weather in Klosterneuburg — Graph

°F

Klosterneuburg Temperature Yesterday

Maximum temperature yesterday: 85 °F (at 5:00 pm)
Minimum temperature yesterday: 67 °F (at 10:00 pm)
Average temperature yesterday: 75 °F

High & Low Weather Summary for the Past Weeks

 TemperatureHumidityPressure
High94 °F (Jul 20, 4:00 pm)96% (Jul 10, 11:00 pm)30.24 "Hg (Jul 10, 11:00 pm)
Low54 °F (Jul 14, 6:00 am)25% (Jul 20, 5:00 pm)29.75 "Hg (Jul 20, 6:00 pm)
Average72 °F59%29.97 "Hg
* Reported Jul 9 7:00 am — Jul 24 7:00 am, Klosterneuburg. Weather by CustomWeather, © 2017

Note: Actual official high and low records may vary slightly from our data, if they occured in-between our weather recording intervals... More about our weather records

Advertising

Klosterneuburg Weather History for the Previous 24 Hours

Scroll right to see more
 ConditionsComfort  
Time TempWeatherWind HumidityBarometerVisibility
7:00 am
Mon, Jul 24
66 °FRain. Overcast.2 mph88%29.89 "Hg11 mi
6:00 am67 °FMild.2 mph83%29.89 "HgN/A
5:00 am67 °FMild.1 mph83%29.90 "HgN/A
4:00 am66 °FMild.1 mph86%29.91 "HgN/A
3:00 am67 °FMild.2 mph86%29.92 "HgN/A
2:00 am67 °FOvercast.3 mph90%29.94 "Hg12 mi
1:00 am67 °FSprinkles. Overcast.3 mph90%29.96 "HgN/A
12:00 am68 °FMild.5 mph88%29.97 "HgN/A
11:00 pm
Sun, Jul 23
67 °FOvercast.1 mph93%29.95 "Hg22 mi
10:00 pm67 °FOvercast.2 mph92%29.94 "Hg22 mi
9:00 pm68 °FOvercast.2 mph91%29.92 "Hg28 mi
8:00 pm70 °FOvercast.3 mph91%29.94 "Hg9 mi
7:00 pm82 °FThunderstorms. Overcast.2 mph48%29.90 "Hg19 mi
6:00 pm84 °FPartly sunny.2 mph43%29.90 "Hg31 mi
5:00 pm85 °FWarm.3 mph43%29.91 "HgN/A
4:00 pm84 °FScattered clouds.5 mph43%29.93 "Hg28 mi
3:00 pm84 °FPartly sunny.3 mph40%29.94 "Hg25 mi
2:00 pm82 °FPartly sunny.6 mph45%29.95 "Hg25 mi
1:00 pm78 °FWarm.6 mph49%29.95 "HgN/A
12:00 pm78 °FWarm.7 mph57%29.95 "HgN/A
11:00 am77 °FPartly sunny.9 mph61%29.95 "Hg25 mi
10:00 am72 °FLight rain. Partly sunny.7 mph72%29.96 "Hg25 mi
9:00 am74 °FLight rain. Partly sunny.8 mph70%29.94 "Hg31 mi
Weather by CustomWeather, © 2017

See weather overviewHow to use our weather pages